Location: B�rgermoos
(47.6500°N, 9.0667°E)
Time: 00:29:39
(UTC+00:00)

Tiros 1 - Pass Details

Date: 13 August 2021
Orbit: 630 x 663 km, 48.4° (Epoch: 19 September)

Event Time Altitude Azimuth Distance (km) Brightness Sun altitude
Rises 14:43:41 0° 260° (W) 2,992 11.5 37.9°
Reaches altitude 10° 14:46:02 10° 260° (W) 2,080 11.0 37.5°
Maximum altitude 14:50:52 88° 348° (NNW) 667 7.9 36.8°
Drops below altitude 10° 14:55:40 10° 81° (E) 2,074 9.4 36.0°
Sets 14:58:01 0° 81° (E) 2,982 10.1 35.7°
